Location: Bord�res
(43.2000°N, 0.2167°W)
Time: 14:33:22
(UTC+00:00)

COSMOS 2428 - Pass Details

Date: 03 March 2021
Orbit: 845 x 858 km, 70.9° (Epoch: 21 April)

Event Time Altitude Azimuth Distance (km) Brightness Sun altitude
Rises 20:59:14 0° 225° (SW) 3,393 6.1 -34.0°
Reaches altitude 10° 21:01:49 10° 233° (SW) 2,462 5.4 -34.4°
Enters shadow 21:07:06 41° 302° (WNW) 1,220 3.8 -35.2°
Exits shadow 21:13:51 - 17° (NNE) 2,971 5.7 -36.3°
Sets 21:15:05 0° 20° (NNE) 3,422 6.0 -36.5°
